CZ-6A DEB, 54543

Orbit data source: Space-Track

CZ-6A DEB, 54543 is space debris in SSO originally from a launch on Fri, 11 Nov 2022 UTC launched from the Taiyaun Space Center, China (TSC). Debris objects in space refer to the collection of defunct objects orbiting the Earth. Examples of debris include non-operational satellites, rocket bodies, and fragments generated from explosions, collisions, or faulty payload assembly.

Loading next visibility...
Identifier
54543, 2022-151KT
Orbit
SSO
Country
Flag of CNCN / PRC
Related business
Manufacturer
SAST
Mission
Spacecraft
Bus & Motor
Unknown
Mass
Unknown
Launch date (UTC)
2022-11-11 (3 years ago)
Launch vehicle
Unknown
Launch site
Taiyaun Space Center, China (TSC)
Object type
Payload
Rocket body
Debris
Shape & HBR
Unknown shape, 0.1 m
Radar Cross Section
Small (<0.1 m²)

Expand to show TLE details & history
Last TLE update: 22 hours ago

TLE from 22 hours ago
0 CZ-6A DEB
1 54543U 22151KT  25351.16675901  .00002674  00000-0  63960-3 0  9999
2 54543  98.7528  54.6312 0113972 150.0643 210.7133 14.50575379163110
Epoch: 2025-12-17T04:00Z
TLE epoch observation values (Epoch: 2025-12-17T04:00:07.978Z)
Latitude
-0.00002°
Longitude
-91.44255°
Altitude
796.565 km
Speed
7.419 km/s
True Right ascension
03h 38m 31s
True Declination
0° 00' 00"
Sunlit
Object was in full shadow at epoch
Visualization orbit readout
Latitude
Unknown
Longitude
Unknown
Altitude
Unknown
Speed
Unknown
Apparent Right ascension
Unknown
Apparent Declination
Unknown
Sunlit
N/A
Visualization observer readout
Local Sidereal Time
00:48:16
Azimuth
Unknown
Elevation
Unknown
Doppler factor
Unknown
Orbital elements
Apogee altitude
801.798 km
Perigee altitude
639.98 km
Semi-major axis
7,099.026 km
Eccentricity
0.0114
Inclination
98.7528°
RAAN
54.6312°
Arg. of periapsis
150.0643°
True anomaly
210.05435°
Mean anomaly
210.7133°
Eccentric anomaly
210.38302°
Mean motion
3.62865 °/min
Orbital period
99.21 mins
BSTAR
0.0006396
Loading maneuver chart data...
Computing Atmospheric mass density...
Loading historical data...
Loading historical data...
Loading historical data...
Loading historical data...
Loading historical data...
Loading historical data...
Loading historical data...

Documentation

Showing up to 5 results
|